[[{"header":{"parameterUnit":"m.s-1","parameterCategory":1,"la1":30.2992,"la2":30.254,"lo1":-89.0895,"lo2":-89.0443,"dy":0.0025,"dx":0.0025,"nx":19,"ny":19,"refTime":"2026-05-10T03:00:00:Z","depth":0,"parameterNumber":2,"parameterNumberName":"U-component_of_WINDS"},"data":[0,0,0,2.5699,2.5708,2.6144,2.6146,2.6674,2.6678,0,0,0,0,0,0,0,0,0,0,0,2.555,2.5553,2.5699,2.5709,2.6144,2.6146,2.6673,2.6678,0,0,0,0,0,0,0,0,0,0,0,2.5548,2.5552,2.5555,2.5711,2.6144,2.6146,2.6672,2.6354,0,0,0,0,0,0,0,0,0,0,2.5937,2.5778,2.5551,2.5555,2.5713,2.6143,2.6146,2.634,2.6374,2.6463,0,2.6534,0,2.6614,2.6711,2.6713,0,0,0,2.5725,2.5748,2.5884,2.5556,2.5717,2.6142,2.5952,2.6359,2.6398,2.6508,2.6542,2.6562,2.6623,2.6714,2.6717,2.7166,2.7167,0,0,2.5701,2.5618,2.5857,2.5908,2.5836,2.5938,2.5966,2.6383,2.6415,2.6544,2.6575,2.6631,2.6718,2.6722,2.7165,2.7166,0,0,0,2.5621,2.56,2.5727,2.5886,2.5966,2.595,2.5982,2.6397,2.6445,2.6581,2.6637,2.6721,2.6727,2.7164,2.7165,2.7145,0,0,0,2.5608,2.5553,2.5715,2.5668,2.5958,2.6186,2.5985,2.6415,2.6465,2.6635,2.6721,2.6732,2.7162,2.7165,2.7143,2.7149,0,0,0,2.5529,2.5545,2.56,2.5663,2.5847,2.6182,2.6254,2.6428,2.6499,2.6713,2.6733,2.7161,2.7164,2.7141,2.7146,2.724,0,0,0,2.5421,2.5579,2.5598,2.5798,2.5843,2.6166,2.6252,2.6499,2.668,2.6723,2.7162,2.7165,2.714,2.7144,2.7237,2.73,2.7319,0,0,2.5574,2.5595,2.5719,2.5749,2.6046,2.6106,2.6404,2.6652,2.6751,2.7023,2.7035,2.7144,2.7146,2.7239,2.7465,2.7479,0,0,0,2.5739,2.5827,2.5925,2.6091,2.6283,2.6447,2.6658,2.6751,2.6985,2.6872,2.7208,2.7212,2.727,2.7304,2.7317,2.7371,2.7179,2.7178,2.7178,2.5833,2.595,2.6163,2.6331,2.6493,2.6709,2.6851,2.7012,2.7086,2.7163,2.7242,2.7365,2.7402,2.7411,2.7466,2.729,2.729,2.729,2.729,2.6065,2.6205,2.6298,2.6536,2.6659,2.6863,2.7079,2.7123,2.7331,2.7315,2.7372,2.7339,2.7424,2.7478,2.7289,2.7289,2.7289,2.7289,2.7289,2.6135,2.6222,2.6331,2.6584,2.6767,2.6936,2.713,2.7239,2.7342,2.7399,2.7493,2.7494,2.7504,2.7437,2.7438,2.7438,2.7438,2.7439,2.7439,2.6162,2.6286,2.6434,2.6651,2.6772,2.6946,2.7166,2.729,2.7454,2.7518,2.7519,2.7581,2.7412,2.7363,2.7446,2.7445,2.7444,2.7443,2.7443,2.6344,2.6321,2.6549,2.667,2.6934,2.7108,2.7245,2.7487,2.7606,2.7698,2.7752,2.761,2.7639,2.763,2.759,2.7727,2.7727,2.7727,2.7727,2.6399,2.6425,2.6683,2.6869,2.7065,2.7212,2.7469,2.7643,2.782,2.7901,2.7899,2.7858,2.7844,2.7882,2.7867,2.7832,2.8027,2.8027,2.8028,2.6516,2.6566,2.6761,2.6931,2.7146,2.7328,2.7573,2.7785,2.7983,2.8042,2.7966,2.7953,2.7889,2.7863,2.7913,2.7888,2.7826,0,0]},{"header":{"parameterUnit":"m.s-1","parameterCategory":1,"la1":30.2992,"la2":30.254,"lo1":-89.0895,"lo2":-89.0443,"dy":0.0025,"dx":0.0025,"nx":19,"ny":19,"refTime":"2026-05-10T03:00:00:Z","depth":0,"parameterNumber":3,"parameterNumberName":"V-component_of_WINDS"},"data":[0,0,0,2.1761,2.1767,2.2079,2.2081,2.248,2.2484,0,0,0,0,0,0,0,0,0,0,0,2.1668,2.1671,2.176,2.1768,2.2079,2.2081,2.248,2.2484,0,0,0,0,0,0,0,0,0,0,0,2.1667,2.167,2.1673,2.1769,2.2079,2.2081,2.2479,2.2243,0,0,0,0,0,0,0,0,0,0,2.194,2.1855,2.1669,2.1673,2.1771,2.2079,2.2081,2.2232,2.2258,2.2339,0,2.241,0,2.2453,2.251,2.2512,0,0,0,2.1768,2.1833,2.1917,2.1674,2.1774,2.2078,2.1939,2.2247,2.2276,2.2373,2.2416,2.2431,2.246,2.2513,2.2515,2.2976,2.2978,0,0,2.1751,2.1725,2.1897,2.1936,2.1887,2.1929,2.1949,2.2264,2.2309,2.2417,2.244,2.2466,2.2516,2.2519,2.2974,2.2977,0,0,0,2.1701,2.1713,2.1789,2.192,2.1976,2.1938,2.1961,2.2295,2.2322,2.2444,2.2471,2.2518,2.2523,2.2972,2.2975,2.3054,0,0,0,2.1691,2.1683,2.1781,2.1768,2.197,2.2139,2.1984,2.23,2.2337,2.2469,2.2518,2.2527,2.297,2.2974,2.3047,2.3097,0,0,0,2.1648,2.1678,2.1723,2.1766,2.1899,2.2135,2.218,2.2309,2.2353,2.2512,2.2528,2.2968,2.2973,2.3041,2.3086,2.321,0,0,0,2.1595,2.1791,2.1724,2.1953,2.1896,2.218,2.2178,2.2392,2.2538,2.252,2.297,2.2975,2.3039,2.308,2.3203,2.3309,2.3351,0,0,2.1828,2.1818,2.1955,2.1904,2.2193,2.2135,2.2437,2.2596,2.2636,2.2861,2.2872,2.3049,2.3086,2.3208,2.3592,2.3625,0,0,0,2.202,2.2118,2.22,2.2336,2.2461,2.2572,2.2687,2.2746,2.2937,2.2746,2.3128,2.315,2.3223,2.3276,2.3304,2.3368,2.2998,2.2997,2.2997,2.2313,2.2351,2.258,2.2655,2.2787,2.2903,2.3013,2.3112,2.3114,2.3203,2.3271,2.3499,2.3559,2.358,2.3647,2.333,2.333,2.333,2.333,2.2658,2.2803,2.2798,2.3017,2.3057,2.3242,2.336,2.3354,2.3533,2.3452,2.3519,2.3428,2.3615,2.3675,2.3337,2.3336,2.3335,2.3334,2.3334,2.2856,2.2932,2.2998,2.3196,2.3345,2.3415,2.3585,2.3615,2.3645,2.371,2.3784,2.3783,2.3786,2.3743,2.3744,2.3744,2.3745,2.3746,2.3746,2.3035,2.3107,2.3246,2.3392,2.3482,2.3604,2.372,2.3809,2.3916,2.3925,2.3926,2.3918,2.3626,2.3552,2.3759,2.3757,2.3755,2.3754,2.3753,2.3373,2.33,2.3516,2.3606,2.3778,2.3923,2.3958,2.4137,2.4215,2.4298,2.4276,2.4054,2.4048,2.4026,2.3965,2.4267,2.4267,2.4267,2.4267,2.354,2.3538,2.3764,2.3905,2.4047,2.4098,2.434,2.4431,2.4513,2.4564,2.4524,2.4445,2.4421,2.4429,2.4398,2.4342,2.4733,2.4733,2.4734,2.3749,2.3762,2.3963,2.404,2.4176,2.4293,2.4521,2.4683,2.4762,2.4753,2.4604,2.4584,2.4457,2.4414,2.4405,2.4356,2.4254,0,0]}]]